Regional Weather Roundup
Issued by NWS Newport/Morehead, NC

Current Version | Previous Version | Text Only | Print | Product List | Glossary On
Versions: 1 2 3 4 5 6 7 8 9 10 11 12 13 14 15 16 17 18 19 20 21 22 23 24 25 26 27 28 29 30 31 32 33 34 35 36 37 38 39 40 41 42 43 44 45 46 47 48 49 50
000
ASUS42 KMHX 300225
RWRMHX
WEATHER ROUNDUP FOR EASTERN NORTH CAROLINA
NATIONAL WEATHER SERVICE NEWPORT/MOREHEAD CITY NC
1000 PM EDT WED JUL 29 2015

NOTE: "FAIR" INDICATES FEW OR NO CLOUDS BELOW 12,000 FEET
WITH NO SIGNIFICANT WEATHER AND/OR OBSTRUCTIONS TO VISIBILITY

NCZ015>017-031-032-045>047-102-103-300300-
NORTH COAST

CITY           SKY/WX    TMP DP  RH WIND       PRES   REMARKS
EDENTON          N/A     78  69  73 SE6       30.00R
ELIZABETH CITY CLEAR     79  71  76 SE3       30.00R
KITTY HAWK     PTCLDY    79  69  71 SE6       30.00R
MANTEO         PTCLDY    78  70  78 SE5       30.01R

$$

NCZ045>047-081-094-103-104-300300-
CENTRAL COAST

CITY           SKY/WX    TMP DP  RH WIND       PRES   REMARKS
FRISCO         PTCLDY    80  75  84 E10       29.98R
SWANQUARTER      N/A     77 N/A N/A NE3       29.94S

$$

NCZ095-097-098-100-101-300300-
SOUTHERN COAST

CITY           SKY/WX    TMP DP  RH WIND       PRES   REMARKS
BEAUFORT       CLEAR     78  76  93 NE5       29.97R
CEDAR ISLAND     N/A     82 N/A N/A NE15      30.03R
JACKSONVILLE   CLEAR     80  70  71 E8        29.97R
PINEY ISLAND   PTCLDY   N/A N/A N/A MISG      29.97R
WILMINGTON     CLEAR     78  73  84 E6        29.97R


$$

NCZ011>013-027>030-043-044-078>080-089-090>093-098-300300-
COASTAL PLAIN

CITY           SKY/WX    TMP DP  RH WIND       PRES   REMARKS
AHOSKIE        CLEAR     77  69  78 SE3       30.00R
CLINTON        CLEAR     79  73  81 CALM      29.99R
ELIZABETHTOWN  CLEAR     79  69  71 CALM      29.99R
GOLDSBORO      CLEAR     80  70  71 SE3       29.96R
GREENVILLE     CLEAR     81  72  74 SE6       30.01R
HAVELOCK       CLEAR     79  73  82 NE6       29.99R
KENANSVILLE    CLEAR     74  70  89 CALM      29.99S
KINSTON        NOT AVBL
NEW BERN       CLEAR     79  71  76 E3        29.99R
RICHLANDS      CLEAR     77  66  69 E6        29.99R
ROCKY MOUNT    CLEAR     80  69  69 SE3       29.98R
WASHINGTON     PTCLDY    76  71  83 CALM      30.00R
WHITEVILLE     CLEAR     78  71  77 CALM      29.98R

$$

AMZ130-135-150-152-154-156-158-170-250-252-270-ANZ085-086-088-633-658-670-300300-
MARINE OBSERVATIONS

STATION/POSITION TIME  TEMP    WIND        PRES    WAVE   SWELL
                       AIR SEA DIR/SP/G            HT/PER HT/PER
                 (UTC) (F)     (DEG/KT/KT) (MB)    (FT/S) (FT/S)
CHESAPEAKE LIGHT 0200   80     160/ 16/ 16 1016.3
64 E VA BEACH    0150   81 82  140/ 10/ 12 1016.0    2/10   2/10
DUCK             0200   78 63                N/A
2 E DUCK         0111      78                N/A     2/11
OREGON INLET     0200   79 85                N/A
13E OREGON INLT  0200      81                N/A     3/ 6
HATTERAS CG      0200   81 84                N/A
DIAMOND BUOY     0150   82 85  100/ 14/ 16 1015.0    4/ 6   2/ 9
CAPE LOOKOUT     0200   81      60/ 11/ 12 1014.3
BEAUFORT LAB     0200   80 81                N/A
30 SE NEW RVR IN NOT AVBL
27 SE WRIGHTSVLE 0200   78 82   60/ 12/ 16   N/A
5 SE WRIGHTSVLE  0108   81 82   80/ 14/ 19 1014.0
225 S CAPE HAT   0150   82 82  190/ 17/ 21 1015.9    5/ 7
41 SE CHARLESTON 0150   84 85   60/ 10/ 12 1013.7    3/ 5   2/ 7

$$


USA.gov is the U.S. government's official web portal to all federal, state and local government web resources and services.